Voltar ao catálogo

CZ-3A R/B

AtivoGTO
NORAD 40368·ROCKET BODY·🇨🇳 China

Lançado Dec 31, 2014 de Xichang Satellite Launch Center

Loading…

TLE

ObsoletoSource: Space-Track

Época: Sep 13, 2026, 11:07 UTC

1 40368U 14090B   26256.46378983  .00000458  00000-0  70424-3 0  9991
2 40368  25.0582   7.2128 7259865 297.2319   8.4439  2.26444013 94333

Acompanhe CZ-3A R/B em tempo real com AllMySat

Download on the App Store